Regional Weather Roundup
Issued by NWS

Home | Current Version | Previous Version | Graphics & Text | Print | Product List | Glossary On
Versions: 1 2 3 4 5 6 7 8 9 10 11 12 13 14 15 16 17 18 19 20 21 22 23 24 25 26 27 28 29 30 31 32 33 34 35 36 37 38 39 40 41 42 43 44 45 46 47 48 49 50
005
ASUS45 KABQ 061401
RWRNM
NEW MEXICO REGIONAL WEATHER ROUNDUP
NATIONAL WEATHER SERVICE ALBUQUERQUE NM
700 AM MST SAT FEB 06 2016

NOTE: "FAIR" MEANS FEW OR NO CLOUDS BELOW 12,000 FEET AGL WITH NO
       SIGNIFICANT WEATHER OR OBSTRUCTIONS TO VISION.

      THIS PRODUCT IS RELEASED AS TWO VERSIONS.  ONE VERSION NEAR
      THE TOP OF THE HOUR CONTAINING PRELIMINARY DATA FROM ALBUQUERQUE
      AND OTHER STATIONS.  A FINAL VERSION WITH ADDITIONAL DATA IS
      ISSUED ABOUT 10 MINUTES AFTER THE HOUR.

NMZ501-503-504-510>518-061500-
NORTHWEST PLATEAU/NORTHCENTRAL MOUNTAINS

CITY           SKY/WX    TMP DP  RH WIND       PRES   REMARKS
FARMINGTON     CLOUDY    11   7  84 NE6       30.50R WCI   1
SANTA FE       CLOUDY    14   5  67 N12       30.41F WCI   0
TAOS           CLOUDY     0  -9  65 SE6       30.43S WCI -12

$$
NMZ402-403-502-505>509-061500-
WESTCENTRAL MOUNTAINS/SOUTHWEST MOUNTAINS

CITY           SKY/WX    TMP DP  RH WIND       PRES   REMARKS
GALLUP         CLEAR      7   3  84 E6        30.49R WCI  -3
GRANTS         CLEAR      6   2  84 NW9       30.49S WCI  -8
SILVER CITY      N/A     18   7  62 N12       30.45F WCI   5

$$
NMZ407-409-411-412-061500-
SOUTHERN DESERTS

CITY           SKY/WX    TMP DP  RH WIND       PRES   REMARKS
DEMING         CLEAR     18   5  57 N6        30.46F WCI  10
HOLLOMAN AFB   CLOUDY    19   2  47 E3        30.47R
ALAMOGORDO     CLOUDY    23   1  39 NE10      30.47F WCI  12
T OR C         CLEAR     24   4  42 NW6       30.47R WCI  17

$$
NMZ519>523-061500-
CENTRAL VALLEYS/CENTRAL HIGHLANDS

CITY           SKY/WX    TMP DP  RH WIND       PRES   REMARKS
ALBUQUERQUE    CLOUDY    24  12  60 N7        30.46F WCI  16
DOUBLE EAGLE   PTCLDY    16  10  79 NW10      30.45F WCI   3
MORIARTY ARPT  FAIR      15   9  77 N5        30.41S WCI   7
CLINES CORNERS CLOUDY    17   8  67 NW21      30.32S WCI   0
BELEN          FAIR      14   9  78 CALM      30.48S
SOCORRO        NOT AVBL

$$
NMZ524>526-539-540-061500-
SOUTHCENTRAL MOUNTAINS

CITY           SKY/WX    TMP DP  RH WIND       PRES   REMARKS
RUIDOSO          N/A     27   0  31 W8G17     30.39R WCI  18

$$
NMZ527>531-061500-
NORTHEAST HIGHLANDS/NORTHEAST PLAINS

CITY           SKY/WX    TMP DP  RH WIND       PRES   REMARKS
LAS VEGAS      CLOUDY    24  -1  33 NE7       30.30S WCI  16
RATON          CLOUDY     9   2  73 NE7       30.29S WCI  -2
CLAYTON        CLOUDY    18   8  65 W9        30.29S WCI   7

$$
NMZ532>537-061500-
EASTCENTRAL PLAINS

CITY           SKY/WX    TMP DP  RH WIND       PRES   REMARKS
TUCUMCARI      CLOUDY    12   7  80 W7        30.35S WCI   1
CANNON AFB     NOT AVBL
CLOVIS AIRPORT CLOUDY    16  10  79 W8        30.37S WCI   5

$$
NMZ028-029-538-061500-
SOUTHEAST PLAINS

CITY           SKY/WX    TMP DP  RH WIND       PRES   REMARKS
ROSWELL        CLOUDY    19  10  68 N5        30.41R WCI  12
ARTESIA        CLOUDY    19   9  63 CALM      30.42S
CARLSBAD       CLOUDY    20  13  74 N8        30.42R WCI  10


$$




USA.gov is the U.S. government's official web portal to all federal, state and local government web resources and services.